Weather in Yasnoye

Russia / Kaliningrad Oblast     55°10′29″N   21°32′38″E
temp.,
°C
wind,
m/s
gust,
m/s
humid.,
%
clouds,
%
prec.,
mm/h
press.,
hPa
HPBL,
m
16 april, fri
fri1623:00+7ne4956100 0.0 1021951
02:00+5ne51086100 0.0 1020722
05:00+5nne51080100 0.4 1019605
08:00+6nne51076100 0.4 1019536
11:00+8ne5871100 0.0 1019563
14:00+13ne696099 0.0 10171314
17:00+10ene51175100 0.0 1018830
20:00+10ene5971100 0.0 1019758
17 april, sat
sat1723:00+10ne41080100 0.0 1020382
02:00+8ne3109065 0.0 1020255
05:00+7ne41192100 0.0 1020316
08:00+9ne41087100 0.3 1020472
11:00+10ene4885100 0.2 1021653
14:00+10ene488798 0.4 1022505
17:00+11ene467733 0.1 1022647
20:00+11e4875100 0.1 1022499
18 april, sun
sun1823:00+8ne399360 0.0 1023210
02:00+7ne389477 0.0 1023168
05:00+6ne37945 0.0 1023130
08:00+10ne387895 0.0 1022324
11:00+15ne466058 0.0 10221071
14:00+17ene565133 0.0 10211530
17:00+16ene46541 0.0 10211454
20:00+11ene36755 0.0 1022101
19 april, mon
mon1923:00+9ese228732 0.0 102322
02:00+9ne238192 0.0 102257
05:00+8ne367988 0.0 1022135
08:00+9ene2583100 0.1 1022214
11:00+12ene476339 0.1 10211110
14:00+12e795915 0.1 10201165
17:00+11ene4863100 0.0 1019874
20:00+9ne387096 0.0 1018307
20 april, tue
tue2023:00+7ne378297 0.0 1017177
02:00+6nne368999 0.0 1015133
05:00+7ne378798 0.1 1014332
08:00+8nne477975 0.1 1012486
11:00+7nne4684100 0.2 10111079
14:00+8nne3682100 0.4 1010957
17:00+8nnw3678100 0.1 1008662
20:00+7nw3786100 0.1 1007215